Location: Rounton
(54.4000°N, 1.3500°W)
Time: 18:19:53
(UTC+00:00)

Explorer 7 - All Passes

Search period start: 30 November 2021 00:00
Search period end: 10 December 2021 00:00
Orbit: 483 x 675 km, 50.3° (Epoch: 29 November)

Date Brightness Start Highest point End Pass type
(mag) Time Alt. Az. Time Alt. Az. Time Alt. Az.
30 Nov - 06:41:32 10° SSE 06:43:04 12° SE 06:44:35 10° ESE visible
30 Nov - 08:19:04 10° SW 08:22:41 31° SSE 08:26:10 10° E daylight
30 Nov - 09:58:53 10° WSW 10:02:42 46° S 10:06:21 10° ESE daylight
30 Nov - 11:39:14 10° W 11:42:40 31° SSW 11:46:02 10° SE daylight
30 Nov - 13:21:06 10° WSW 13:22:13 11° SW 13:23:18 10° SSW daylight
01 Dec - 06:44:12 10° S 06:46:50 16° SSE 06:49:24 10° ESE visible
01 Dec - 08:22:49 10° SW 08:26:36 37° SSE 08:30:13 10° E daylight
01 Dec - 10:02:51 10° WSW 10:06:39 45° S 10:10:18 10° ESE daylight
01 Dec - 11:43:20 10° W 11:46:33 25° SSW 11:49:40 10° SSE daylight
02 Dec - 06:47:25 10° SSW 06:50:39 22° SSE 06:53:44 10° E visible
02 Dec - 08:26:39 10° WSW 08:30:32 42° S 08:34:13 10° E daylight
02 Dec - 10:06:50 10° W 10:10:35 42° S 10:14:12 10° ESE daylight
02 Dec - 11:47:32 10° WSW 11:50:22 20° SSW 11:53:09 10° SSE daylight
03 Dec - 06:50:55 10° SW 06:54:30 27° SSE 06:57:55 10° E visible
03 Dec - 08:30:33 10° WSW 08:34:28 46° S 08:38:12 10° ESE daylight
03 Dec - 10:10:50 10° W 10:14:30 36° SSW 10:18:01 10° SE daylight
03 Dec - 11:51:57 10° WSW 11:54:09 15° SW 11:56:19 10° S daylight
04 Dec - 05:16:36 10° S 05:18:41 13° SE 05:20:44 10° ESE visible
04 Dec - 06:54:33 10° SW 06:58:22 33° SSE 07:02:00 10° E visible
04 Dec - 08:34:29 10° WSW 08:38:25 47° S 08:42:09 10° ESE daylight
04 Dec - 10:14:53 10° W 10:18:23 30° SSW 10:21:46 10° SE daylight
04 Dec - 11:57:08 10° SW 11:57:53 10° SW 11:58:38 10° SSW daylight
05 Dec - 05:19:30 10° S 05:22:27 18° SSE 05:25:19 10° ESE visible
05 Dec - 06:58:19 10° SW 07:02:16 39° SSE 07:06:01 10° E visible
05 Dec - 08:38:25 10° W 08:42:20 45° S 08:46:04 10° ESE daylight
05 Dec - 10:18:59 10° W 10:22:14 25° SSW 10:25:23 10° SSE daylight
06 Dec - 05:22:48 10° SSW 05:26:16 24° SSE 05:29:36 10° E visible
06 Dec - 07:02:09 10° WSW 07:06:12 44° S 07:10:01 10° E visible
06 Dec - 08:42:24 10° W 08:46:16 41° SSW 08:49:57 10° ESE daylight
06 Dec - 10:23:11 10° WSW 10:26:02 19° SSW 10:28:48 10° SSE daylight
07 Dec - 03:49:36 10° SSE 03:50:32 11° SE 03:51:29 10° SE visible
07 Dec - 05:26:19 10° SW 05:30:07 30° SSE 05:33:43 10° E visible
07 Dec - 07:06:03 10° WSW 07:10:08 47° S 07:13:58 10° ESE visible
07 Dec - 08:46:23 10° W 08:50:10 36° SSW 08:53:45 10° SE daylight
07 Dec - 10:27:37 10° WSW 10:29:47 14° SW 10:31:54 10° S daylight
08 Dec - 03:51:44 10° S 03:54:16 15° SE 03:56:43 10° ESE visible
08 Dec - 05:29:58 10° SW 05:33:59 36° SSE 05:37:47 10° E visible
08 Dec - 07:09:58 10° WSW 07:14:04 48° S 07:17:54 10° ESE visible
08 Dec - 08:50:26 10° W 08:54:02 30° SSW 08:57:28 10° SE daylight
08 Dec - 10:33:12 10° SW 10:33:29 10° SW 10:33:47 10° SW daylight
09 Dec - 03:54:45 10° SSW 03:58:01 20° SSE 04:01:10 10° E visible
09 Dec - 05:33:45 10° WSW 05:37:53 42° SSE 05:41:46 10° E visible
09 Dec - 07:13:55 10° W 07:17:59 46° S 07:21:48 10° ESE visible
09 Dec - 08:54:32 10° W 08:57:52 24° SSW 09:01:02 10° SSE daylight
